owner,sensor,date,latitude,longitude,vertical_datum,wind_speed,wind_to_direction,wind_speed_of_gust,qcFlag 
ADCP,ioos:station:wmo:42369:1,2011-09-01T00:00:00Z,27.2070,-90.2830,60.4,7.4,77.0,99.0,'11111222,11111222,11144222' 
ADCP,ioos:station:wmo:42369:1,2011-09-01T00:20:00Z,27.2070,-90.2830,60.4,7.7,73.0,99.0,'11111222,11111222,11144222' 
ADCP,ioos:station:wmo:42369:1,2011-09-01T00:40:00Z,27.2070,-90.2830,60.4,7.6,74.0,99.0,'11111222,11111222,11144222' 
ADCP,ioos:station:wmo:42369:1,2011-09-01T01:00:00Z,27.2070,-90.2830,60.4,7.6,77.0,99.0,'11111222,11111222,11144222' 
ADCP,ioos:station:wmo:42369:1,2011-09-01T01:20:00Z,27.2070,-90.2830,60.4,7.9,86.0,99.0,'11111222,11111222,11144222' 
ADCP,ioos:station:wmo:42369:1,2011-09-01T02:00:00Z,27.2070,-90.2830,60.4,8.8,78.0,99.0,'11111222,11111222,11144222' 
ADCP,ioos:station:wmo:42369:1,2011-09-01T02:20:00Z,27.2070,-90.2830,60.4,8.7,87.0,99.0,'11111222,11111222,11144222' 
ADCP,ioos:station:wmo:42369:1,2011-09-01T03:00:00Z,27.2070,-90.2830,60.4,6.8,80.0,99.0,'11111222,11111222,11144222' 
ADCP,ioos:station:wmo:42369:1,2011-09-01T03:20:00Z,27.2070,-90.2830,60.4,8.1,80.0,99.0,'11111222,11111222,11144222' 
ADCP,ioos:station:wmo:42369:1,2011-09-01T03:40:00Z,27.2070,-90.2830,60.4,7.8,74.0,99.0,'11111222,11111222,11144222' 
ADCP,ioos:station:wmo:42369:1,2011-09-01T04:00:00Z,27.2070,-90.2830,60.4,8.3,70.0,99.0,'11111222,11111222,11144222' 
ADCP,ioos:station:wmo:42369:1,2011-09-01T04:20:00Z,27.2070,-90.2830,60.4,8.9,73.0,99.0,'11111222,11111222,11144222' 
ADCP,ioos:station:wmo:42369:1,2011-09-01T04:40:00Z,27.2070,-90.2830,60.4,8.1,76.0,99.0,'11111222,11111222,11144222' 
ADCP,ioos:station:wmo:42369:1,2011-09-01T05:00:00Z,27.2070,-90.2830,60.4,8.3,85.0,99.0,'11111222,11111222,11144222' 
ADCP,ioos:station:wmo:42369:1,2011-09-01T05:20:00Z,27.2070,-90.2830,60.4,8.0,87.0,99.0,'11111222,11111222,11144222' 
ADCP,ioos:station:wmo:42369:1,2011-09-01T05:40:00Z,27.2070,-90.2830,60.4,7.9,83.0,99.0,'11111222,11111222,11144222' 
ADCP,ioos:station:wmo:42369:1,2011-09-01T06:00:00Z,27.2070,-90.2830,60.4,7.1,86.0,99.0,'11111222,11111222,11144222' 
ADCP,ioos:station:wmo:42369:1,2011-09-01T06:20:00Z,27.2070,-90.2830,60.4,6.9,85.0,99.0,'11111222,11111222,11144222' 
ADCP,ioos:station:wmo:42369:1,2011-09-01T06:40:00Z,27.2070,-90.2830,60.4,6.8,73.0,99.0,'11111222,11111222,11144222' 
ADCP,ioos:station:wmo:42369:1,2011-09-01T07:00:00Z,27.2070,-90.2830,60.4,6.8,70.0,99.0,'11111222,11111222,11144222' 
ADCP,ioos:station:wmo:42369:1,2011-09-01T07:20:00Z,27.2070,-90.2830,60.4,6.5,78.0,99.0,'11111222,11111222,11144222' 
ADCP,ioos:station:wmo:42369:1,2011-09-01T07:40:00Z,27.2070,-90.2830,60.4,6.5,75.0,99.0,'11111222,11111222,11144222' 
ADCP,ioos:station:wmo:42369:1,2011-09-01T08:00:00Z,27.2070,-90.2830,60.4,7.2,73.0,99.0,'11111222,11111222,11144222' 
ADCP,ioos:station:wmo:42369:1,2011-09-01T08:20:00Z,27.2070,-90.2830,60.4,6.9,70.0,99.0,'11111222,11111222,11144222' 
ADCP,ioos:station:wmo:42369:1,2011-09-01T08:40:00Z,27.2070,-90.2830,60.4,7.1,79.0,99.0,'11111222,11111222,11144222' 
ADCP,ioos:station:wmo:42369:1,2011-09-01T09:00:00Z,27.2070,-90.2830,60.4,6.4,70.0,99.0,'11111222,11111222,11144222' 
ADCP,ioos:station:wmo:42369:1,2011-09-01T09:20:00Z,27.2070,-90.2830,60.4,5.9,66.0,99.0,'11111222,11111222,11144222' 
ADCP,ioos:station:wmo:42369:1,2011-09-01T10:00:00Z,27.2070,-90.2830,60.4,5.0,63.0,99.0,'11111222,11111222,11144222' 
ADCP,ioos:station:wmo:42369:1,2011-09-01T10:20:00Z,27.2070,-90.2830,60.4,6.1,72.0,99.0,'11111222,11111222,11144222' 
ADCP,ioos:station:wmo:42369:1,2011-09-01T11:00:00Z,27.2070,-90.2830,60.4,4.4,79.0,99.0,'11111222,11111222,11144222' 
ADCP,ioos:station:wmo:42369:1,2011-09-01T11:20:00Z,27.2070,-90.2830,60.4,4.7,90.0,99.0,'11111222,11111222,11144222' 
ADCP,ioos:station:wmo:42369:1,2011-09-01T12:00:00Z,27.2070,-90.2830,60.4,3.6,82.0,99.0,'11111222,11111222,11144222' 
ADCP,ioos:station:wmo:42369:1,2011-09-01T12:20:00Z,27.2070,-90.2830,60.4,4.9,68.0,99.0,'11111222,11111222,11144222' 
ADCP,ioos:station:wmo:42369:1,2011-09-01T12:40:00Z,27.2070,-90.2830,60.4,4.5,77.0,99.0,'11111222,11111222,11144222' 
ADCP,ioos:station:wmo:42369:1,2011-09-01T13:20:00Z,27.2070,-90.2830,60.4,2.3,139.0,99.0,'11111222,11111222,11144222' 
ADCP,ioos:station:wmo:42369:1,2011-09-01T14:00:00Z,27.2070,-90.2830,60.4,2.4,100.0,99.0,'11111222,11111222,11144222' 
ADCP,ioos:station:wmo:42369:1,2011-09-01T14:20:00Z,27.2070,-90.2830,60.4,1.4,125.0,99.0,'11111222,11111222,11144222' 
ADCP,ioos:station:wmo:42369:1,2011-09-01T14:40:00Z,27.2070,-90.2830,60.4,1.5,204.0,99.0,'11111222,11111222,11144222' 
ADCP,ioos:station:wmo:42369:1,2011-09-01T15:00:00Z,27.2070,-90.2830,60.4,1.6,159.0,99.0,'11111222,11111222,11144222' 
ADCP,ioos:station:wmo:42369:1,2011-09-01T15:20:00Z,27.2070,-90.2830,60.4,2.0,163.0,99.0,'11111222,11111222,11144222' 
ADCP,ioos:station:wmo:42369:1,2011-09-01T16:20:00Z,27.2070,-90.2830,60.4,7.6,180.0,99.0,'11111222,11111222,11144222' 
ADCP,ioos:station:wmo:42369:1,2011-09-01T16:40:00Z,27.2070,-90.2830,60.4,5.6,153.0,99.0,'11111222,11111222,11144222' 
ADCP,ioos:station:wmo:42369:1,2011-09-01T17:00:00Z,27.2070,-90.2830,60.4,3.3,69.0,99.0,'11111222,11111222,11144222' 
ADCP,ioos:station:wmo:42369:1,2011-09-01T17:20:00Z,27.2070,-90.2830,60.4,1.4,135.0,99.0,'11111222,11111222,11144222' 
ADCP,ioos:station:wmo:42369:1,2011-09-01T18:00:00Z,27.2070,-90.2830,60.4,5.1,176.0,99.0,'11111222,11111222,11144222' 
ADCP,ioos:station:wmo:42369:1,2011-09-01T18:20:00Z,27.2070,-90.2830,60.4,4.9,168.0,99.0,'11111222,11111222,11144222' 
ADCP,ioos:station:wmo:42369:1,2011-09-01T19:00:00Z,27.2070,-90.2830,60.4,4.2,152.0,99.0,'11111222,11111222,11144222' 
ADCP,ioos:station:wmo:42369:1,2011-09-01T19:20:00Z,27.2070,-90.2830,60.4,3.7,144.0,99.0,'11111222,11111222,11144222' 
ADCP,ioos:station:wmo:42369:1,2011-09-01T20:00:00Z,27.2070,-90.2830,60.4,5.3,120.0,99.0,'11111222,11111222,11144222' 
ADCP,ioos:station:wmo:42369:1,2011-09-01T20:20:00Z,27.2070,-90.2830,60.4,6.1,98.0,99.0,'11111222,11111222,11144222' 
ADCP,ioos:station:wmo:42369:1,2011-09-01T21:00:00Z,27.2070,-90.2830,60.4,3.8,110.0,99.0,'11111222,11111222,11144222' 
ADCP,ioos:station:wmo:42369:1,2011-09-01T21:20:00Z,27.2070,-90.2830,60.4,4.7,129.0,99.0,'11111222,11111222,11144222' 
ADCP,ioos:station:wmo:42369:1,2011-09-01T21:40:00Z,27.2070,-90.2830,60.4,5.6,134.0,99.0,'11111222,11111222,11144222' 
ADCP,ioos:station:wmo:42369:1,2011-09-01T22:00:00Z,27.2070,-90.2830,60.4,5.3,124.0,99.0,'11111222,11111222,11144222' 
ADCP,ioos:station:wmo:42369:1,2011-09-01T22:40:00Z,27.2070,-90.2830,60.4,7.5,104.0,99.0,'11111222,11111222,11144222' 
ADCP,ioos:station:wmo:42369:1,2011-09-01T23:00:00Z,27.2070,-90.2830,60.4,7.9,104.0,99.0,'11111222,11111222,11144222' 
ADCP,ioos:station:wmo:42369:1,2011-09-01T23:20:00Z,27.2070,-90.2830,60.4,8.0,102.0,99.0,'11111222,11111222,11144222' 
ADCP,ioos:station:wmo:42369:1,2011-09-02T00:00:00Z,27.2070,-90.2830,60.4,8.8,102.0,99.0,'11111222,11111222,11144222' 
ADCP,ioos:station:wmo:42369:1,2011-09-02T00:20:00Z,27.2070,-90.2830,60.4,9.1,99.0,99.0,'11111222,11111222,11144222' 
ADCP,ioos:station:wmo:42369:1,2011-09-02T00:40:00Z,27.2070,-90.2830,60.4,8.8,98.0,99.0,'11111222,11111222,11144222' 
ADCP,ioos:station:wmo:42369:1,2011-09-02T01:00:00Z,27.2070,-90.2830,60.4,9.0,102.0,99.0,'11111222,11111222,11144222' 
ADCP,ioos:station:wmo:42369:1,2011-09-02T01:20:00Z,27.2070,-90.2830,60.4,9.4,101.0,99.0,'11111222,11111222,11144222' 
ADCP,ioos:station:wmo:42369:1,2011-09-02T02:00:00Z,27.2070,-90.2830,60.4,11.6,134.0,99.0,'11111222,11111222,11144222' 
ADCP,ioos:station:wmo:42369:1,2011-09-02T02:20:00Z,27.2070,-90.2830,60.4,13.7,147.0,99.0,'11111222,11111222,11144222' 
ADCP,ioos:station:wmo:42369:1,2011-09-02T03:20:00Z,27.2070,-90.2830,60.4,11.7,148.0,99.0,'11111222,11111222,11144222' 
ADCP,ioos:station:wmo:42369:1,2011-09-02T03:40:00Z,27.2070,-90.2830,60.4,10.5,138.0,99.0,'11111222,11111222,11144222' 
ADCP,ioos:station:wmo:42369:1,2011-09-02T04:00:00Z,27.2070,-90.2830,60.4,9.5,130.0,99.0,'11111222,11111222,11144222' 
ADCP,ioos:station:wmo:42369:1,2011-09-02T04:20:00Z,27.2070,-90.2830,60.4,9.3,148.0,99.0,'11111222,11111222,11144222' 
ADCP,ioos:station:wmo:42369:1,2011-09-02T05:00:00Z,27.2070,-90.2830,60.4,8.2,145.0,99.0,'11111222,11111222,11144222' 
ADCP,ioos:station:wmo:42369:1,2011-09-02T05:20:00Z,27.2070,-90.2830,60.4,8.1,137.0,99.0,'11111222,11111222,11144222' 
ADCP,ioos:station:wmo:42369:1,2011-09-02T06:00:00Z,27.2070,-90.2830,60.4,8.5,147.0,99.0,'11111222,11111222,11144222' 
ADCP,ioos:station:wmo:42369:1,2011-09-02T07:00:00Z,27.2070,-90.2830,60.4,13.2,173.0,99.0,'11111222,11111222,11144222' 
ADCP,ioos:station:wmo:42369:1,2011-09-02T07:20:00Z,27.2070,-90.2830,60.4,15.8,177.0,99.0,'11111222,11111222,11144222' 
ADCP,ioos:station:wmo:42369:1,2011-09-02T07:40:00Z,27.2070,-90.2830,60.4,15.2,181.0,99.0,'11111222,11111222,11144222' 
ADCP,ioos:station:wmo:42369:1,2011-09-02T08:00:00Z,27.2070,-90.2830,60.4,13.5,173.0,99.0,'11111222,11111222,11144222' 
ADCP,ioos:station:wmo:42369:1,2011-09-02T08:20:00Z,27.2070,-90.2830,60.4,9.7,197.0,99.0,'11111222,11111222,11144222' 
ADCP,ioos:station:wmo:42369:1,2011-09-02T08:40:00Z,27.2070,-90.2830,60.4,6.9,206.0,99.0,'11111222,11111222,11144222' 
ADCP,ioos:station:wmo:42369:1,2011-09-02T09:00:00Z,27.2070,-90.2830,60.4,10.3,203.0,99.0,'11111222,11111222,11144222' 
ADCP,ioos:station:wmo:42369:1,2011-09-02T09:20:00Z,27.2070,-90.2830,60.4,12.9,197.0,99.0,'11111222,11111222,11144222' 
ADCP,ioos:station:wmo:42369:1,2011-09-02T09:40:00Z,27.2070,-90.2830,60.4,12.4,199.0,99.0,'11111222,11111222,11144222' 
ADCP,ioos:station:wmo:42369:1,2011-09-02T10:00:00Z,27.2070,-90.2830,60.4,10.0,202.0,99.0,'11111222,11111222,11144222' 
ADCP,ioos:station:wmo:42369:1,2011-09-02T10:20:00Z,27.2070,-90.2830,60.4,11.9,192.0,99.0,'11111222,11111222,11144222' 
ADCP,ioos:station:wmo:42369:1,2011-09-02T11:00:00Z,27.2070,-90.2830,60.4,11.6,197.0,99.0,'11111222,11111222,11144222' 
ADCP,ioos:station:wmo:42369:1,2011-09-02T12:00:00Z,27.2070,-90.2830,60.4,10.8,209.0,99.0,'11111222,11111222,11144222' 
ADCP,ioos:station:wmo:42369:1,2011-09-02T12:20:00Z,27.2070,-90.2830,60.4,9.2,203.0,99.0,'11111222,11111222,11144222' 
ADCP,ioos:station:wmo:42369:1,2011-09-02T13:00:00Z,27.2070,-90.2830,60.4,17.1,190.0,99.0,'11111222,11111222,11144222' 
ADCP,ioos:station:wmo:42369:1,2011-09-02T13:20:00Z,27.2070,-90.2830,60.4,13.3,193.0,99.0,'11111222,11111222,11144222' 
ADCP,ioos:station:wmo:42369:1,2011-09-02T14:00:00Z,27.2070,-90.2830,60.4,14.6,182.0,99.0,'11111222,11111222,11144222' 
ADCP,ioos:station:wmo:42369:1,2011-09-02T15:00:00Z,27.2070,-90.2830,60.4,15.8,186.0,99.0,'11111222,11111222,11144222' 
ADCP,ioos:station:wmo:42369:1,2011-09-02T15:20:00Z,27.2070,-90.2830,60.4,16.0,186.0,99.0,'11111222,11111222,11144222' 
ADCP,ioos:station:wmo:42369:1,2011-09-02T15:40:00Z,27.2070,-90.2830,60.4,15.1,183.0,99.0,'11111222,11111222,11144222' 
ADCP,ioos:station:wmo:42369:1,2011-09-02T16:00:00Z,27.2070,-90.2830,60.4,13.3,181.0,99.0,'11111222,11111222,11144222' 
ADCP,ioos:station:wmo:42369:1,2011-09-02T16:20:00Z,27.2070,-90.2830,60.4,12.5,179.0,99.0,'11111222,11111222,11144222' 
ADCP,ioos:station:wmo:42369:1,2011-09-02T16:40:00Z,27.2070,-90.2830,60.4,12.7,169.0,99.0,'11111222,11111222,11144222' 
ADCP,ioos:station:wmo:42369:1,2011-09-02T17:00:00Z,27.2070,-90.2830,60.4,13.7,172.0,99.0,'11111222,11111222,11144222' 
ADCP,ioos:station:wmo:42369:1,2011-09-02T17:20:00Z,27.2070,-90.2830,60.4,13.6,181.0,99.0,'11111222,11111222,11144222' 
ADCP,ioos:station:wmo:42369:1,2011-09-02T18:00:00Z,27.2070,-90.2830,60.4,14.3,178.0,99.0,'11111222,11111222,11144222' 
ADCP,ioos:station:wmo:42369:1,2011-09-02T18:20:00Z,27.2070,-90.2830,60.4,14.8,179.0,99.0,'11111222,11111222,11144222' 
ADCP,ioos:station:wmo:42369:1,2011-09-02T19:00:00Z,27.2070,-90.2830,60.4,14.8,176.0,99.0,'11111222,11111222,11144222' 
ADCP,ioos:station:wmo:42369:1,2011-09-02T19:20:00Z,27.2070,-90.2830,60.4,15.5,182.0,99.0,'11111222,11111222,11144222' 
ADCP,ioos:station:wmo:42369:1,2011-09-02T20:00:00Z,27.2070,-90.2830,60.4,15.3,188.0,99.0,'11111222,11111222,11144222' 
ADCP,ioos:station:wmo:42369:1,2011-09-02T20:20:00Z,27.2070,-90.2830,60.4,13.1,191.0,99.0,'11111222,11111222,11144222' 
ADCP,ioos:station:wmo:42369:1,2011-09-02T21:00:00Z,27.2070,-90.2830,60.4,13.7,189.0,99.0,'11111222,11111222,11144222' 
ADCP,ioos:station:wmo:42369:1,2011-09-02T21:20:00Z,27.2070,-90.2830,60.4,16.0,187.0,99.0,'11111222,11111222,11144222' 
ADCP,ioos:station:wmo:42369:1,2011-09-02T21:40:00Z,27.2070,-90.2830,60.4,16.6,187.0,99.0,'11111222,11111222,11144222' 
ADCP,ioos:station:wmo:42369:1,2011-09-02T22:00:00Z,27.2070,-90.2830,60.4,15.0,189.0,99.0,'11111222,11111222,11144222' 
ADCP,ioos:station:wmo:42369:1,2011-09-02T22:20:00Z,27.2070,-90.2830,60.4,14.2,189.0,99.0,'11111222,11111222,11144222' 
ADCP,ioos:station:wmo:42369:1,2011-09-02T23:00:00Z,27.2070,-90.2830,60.4,14.4,191.0,99.0,'11111222,11111222,11144222' 
ADCP,ioos:station:wmo:42369:1,2011-09-02T23:20:00Z,27.2070,-90.2830,60.4,13.4,190.0,99.0,'11111222,11111222,11144222' 
ADCP,ioos:station:wmo:42369:1,2011-09-03T00:00:00Z,27.2070,-90.2830,60.4,13.6,190.0,99.0,'11111222,11111222,11144222' 
ADCP,ioos:station:wmo:42369:1,2011-09-03T00:20:00Z,27.2070,-90.2830,60.4,13.1,190.0,99.0,'11111222,11111222,11144222' 
ADCP,ioos:station:wmo:42369:1,2011-09-03T00:40:00Z,27.2070,-90.2830,60.4,12.2,192.0,99.0,'11111222,11111222,11144222' 
ADCP,ioos:station:wmo:42369:1,2011-09-03T01:00:00Z,27.2070,-90.2830,60.4,13.8,191.0,99.0,'11111222,11111222,11144222' 
ADCP,ioos:station:wmo:42369:1,2011-09-03T01:20:00Z,27.2070,-90.2830,60.4,13.2,191.0,99.0,'11111222,11111222,11144222' 
ADCP,ioos:station:wmo:42369:1,2011-09-03T02:00:00Z,27.2070,-90.2830,60.4,13.5,198.0,99.0,'11111222,11111222,11144222' 
ADCP,ioos:station:wmo:42369:1,2011-09-03T02:20:00Z,27.2070,-90.2830,60.4,14.3,193.0,99.0,'11111222,11111222,11144222' 
ADCP,ioos:station:wmo:42369:1,2011-09-03T02:40:00Z,27.2070,-90.2830,60.4,12.6,196.0,99.0,'11111222,11111222,11144222' 
ADCP,ioos:station:wmo:42369:1,2011-09-03T03:20:00Z,27.2070,-90.2830,60.4,11.8,193.0,99.0,'11111222,11111222,11144222' 
ADCP,ioos:station:wmo:42369:1,2011-09-03T03:40:00Z,27.2070,-90.2830,60.4,11.8,194.0,99.0,'11111222,11111222,11144222' 
ADCP,ioos:station:wmo:42369:1,2011-09-03T04:00:00Z,27.2070,-90.2830,60.4,13.3,198.0,99.0,'11111222,11111222,11144222' 
ADCP,ioos:station:wmo:42369:1,2011-09-03T04:20:00Z,27.2070,-90.2830,60.4,14.1,200.0,99.0,'11111222,11111222,11144222' 
ADCP,ioos:station:wmo:42369:1,2011-09-03T04:40:00Z,27.2070,-90.2830,60.4,13.2,193.0,99.0,'11111222,11111222,11144222' 
ADCP,ioos:station:wmo:42369:1,2011-09-03T05:00:00Z,27.2070,-90.2830,60.4,14.8,192.0,99.0,'11111222,11111222,11144222' 
ADCP,ioos:station:wmo:42369:1,2011-09-03T05:20:00Z,27.2070,-90.2830,60.4,17.1,190.0,99.0,'11111222,11111222,11144222' 
ADCP,ioos:station:wmo:42369:1,2011-09-03T05:40:00Z,27.2070,-90.2830,60.4,14.9,190.0,99.0,'11111222,11111222,11144222' 
ADCP,ioos:station:wmo:42369:1,2011-09-03T06:00:00Z,27.2070,-90.2830,60.4,16.8,188.0,99.0,'11111222,11111222,11144222' 
ADCP,ioos:station:wmo:42369:1,2011-09-03T06:20:00Z,27.2070,-90.2830,60.4,14.1,197.0,99.0,'11111222,11111222,11144222' 
ADCP,ioos:station:wmo:42369:1,2011-09-03T06:40:00Z,27.2070,-90.2830,60.4,15.2,189.0,99.0,'11111222,11111222,11144222' 
ADCP,ioos:station:wmo:42369:1,2011-09-03T07:00:00Z,27.2070,-90.2830,60.4,17.0,188.0,99.0,'11111222,11111222,11144222' 
ADCP,ioos:station:wmo:42369:1,2011-09-03T07:20:00Z,27.2070,-90.2830,60.4,18.4,186.0,99.0,'11111222,11111222,11144222' 
ADCP,ioos:station:wmo:42369:1,2011-09-03T08:00:00Z,27.2070,-90.2830,60.4,14.0,191.0,99.0,'11111222,11111222,11144222' 
ADCP,ioos:station:wmo:42369:1,2011-09-03T08:20:00Z,27.2070,-90.2830,60.4,14.2,195.0,99.0,'11111222,11111222,11144222' 
ADCP,ioos:station:wmo:42369:1,2011-09-03T08:40:00Z,27.2070,-90.2830,60.4,14.4,212.0,99.0,'11111222,11111222,11144222' 
ADCP,ioos:station:wmo:42369:1,2011-09-03T09:00:00Z,27.2070,-90.2830,60.4,14.5,201.0,99.0,'11111222,11111222,11144222' 
ADCP,ioos:station:wmo:42369:1,2011-09-03T09:20:00Z,27.2070,-90.2830,60.4,6.3,202.0,99.0,'11111222,11111222,11144222' 
ADCP,ioos:station:wmo:42369:1,2011-09-03T10:00:00Z,27.2070,-90.2830,60.4,13.8,202.0,99.0,'11111222,11111222,11144222' 
ADCP,ioos:station:wmo:42369:1,2011-09-03T10:20:00Z,27.2070,-90.2830,60.4,15.3,199.0,99.0,'11111222,11111222,11144222' 
ADCP,ioos:station:wmo:42369:1,2011-09-03T10:40:00Z,27.2070,-90.2830,60.4,9.1,212.0,99.0,'11111222,11111222,11144222' 
ADCP,ioos:station:wmo:42369:1,2011-09-03T11:00:00Z,27.2070,-90.2830,60.4,15.6,207.0,99.0,'11111222,11111222,11144222' 
ADCP,ioos:station:wmo:42369:1,2011-09-03T11:20:00Z,27.2070,-90.2830,60.4,14.2,206.0,99.0,'11111222,11111222,11144222' 
ADCP,ioos:station:wmo:42369:1,2011-09-03T11:40:00Z,27.2070,-90.2830,60.4,6.3,203.0,99.0,'11111222,11111222,11144222' 
ADCP,ioos:station:wmo:42369:1,2011-09-03T12:00:00Z,27.2070,-90.2830,60.4,17.0,203.0,99.0,'11111222,11111222,11144222' 
ADCP,ioos:station:wmo:42369:1,2011-09-03T12:20:00Z,27.2070,-90.2830,60.4,17.3,207.0,99.0,'11111222,11111222,11144222' 
ADCP,ioos:station:wmo:42369:1,2011-09-03T12:40:00Z,27.2070,-90.2830,60.4,17.6,203.0,99.0,'11111222,11111222,11144222' 
ADCP,ioos:station:wmo:42369:1,2011-09-03T13:20:00Z,27.2070,-90.2830,60.4,14.7,207.0,99.0,'11111222,11111222,11144222' 
ADCP,ioos:station:wmo:42369:1,2011-09-03T13:40:00Z,27.2070,-90.2830,60.4,14.3,204.0,99.0,'11111222,11111222,11144222' 
ADCP,ioos:station:wmo:42369:1,2011-09-03T14:00:00Z,27.2070,-90.2830,60.4,14.2,198.0,99.0,'11111222,11111222,11144222' 
ADCP,ioos:station:wmo:42369:1,2011-09-03T14:20:00Z,27.2070,-90.2830,60.4,12.5,213.0,99.0,'11111222,11111222,11144222' 
ADCP,ioos:station:wmo:42369:1,2011-09-03T15:00:00Z,27.2070,-90.2830,60.4,11.9,202.0,99.0,'11111222,11111222,11144222' 
ADCP,ioos:station:wmo:42369:1,2011-09-03T15:20:00Z,27.2070,-90.2830,60.4,12.0,206.0,99.0,'11111222,11111222,11144222' 
ADCP,ioos:station:wmo:42369:1,2011-09-03T16:00:00Z,27.2070,-90.2830,60.4,9.8,234.0,99.0,'11111222,11111222,11144222' 
ADCP,ioos:station:wmo:42369:1,2011-09-03T16:40:00Z,27.2070,-90.2830,60.4,11.8,212.0,99.0,'11111222,11111222,11144222' 
ADCP,ioos:station:wmo:42369:1,2011-09-03T17:00:00Z,27.2070,-90.2830,60.4,10.4,209.0,99.0,'11111222,11111222,11144222' 
ADCP,ioos:station:wmo:42369:1,2011-09-03T17:20:00Z,27.2070,-90.2830,60.4,12.0,203.0,99.0,'11111222,11111222,11144222' 
ADCP,ioos:station:wmo:42369:1,2011-09-03T17:40:00Z,27.2070,-90.2830,60.4,12.1,213.0,99.0,'11111222,11111222,11144222' 
ADCP,ioos:station:wmo:42369:1,2011-09-03T18:00:00Z,27.2070,-90.2830,60.4,12.1,209.0,99.0,'11111222,11111222,11144222' 
ADCP,ioos:station:wmo:42369:1,2011-09-03T18:20:00Z,27.2070,-90.2830,60.4,11.3,207.0,99.0,'11111222,11111222,11144222' 
ADCP,ioos:station:wmo:42369:1,2011-09-03T18:40:00Z,27.2070,-90.2830,60.4,10.8,206.0,99.0,'11111222,11111222,11144222' 
ADCP,ioos:station:wmo:42369:1,2011-09-03T19:00:00Z,27.2070,-90.2830,60.4,12.2,222.0,99.0,'11111222,11111222,11144222' 
ADCP,ioos:station:wmo:42369:1,2011-09-03T20:00:00Z,27.2070,-90.2830,60.4,12.2,241.0,99.0,'11111222,11111222,11144222' 
ADCP,ioos:station:wmo:42369:1,2011-09-03T20:20:00Z,27.2070,-90.2830,60.4,12.6,235.0,99.0,'11111222,11111222,11144222' 
ADCP,ioos:station:wmo:42369:1,2011-09-03T20:40:00Z,27.2070,-90.2830,60.4,12.0,226.0,99.0,'11111222,11111222,11144222' 
ADCP,ioos:station:wmo:42369:1,2011-09-03T21:00:00Z,27.2070,-90.2830,60.4,13.1,230.0,99.0,'11111222,11111222,11144222' 
ADCP,ioos:station:wmo:42369:1,2011-09-03T21:20:00Z,27.2070,-90.2830,60.4,12.7,232.0,99.0,'11111222,11111222,11144222' 
ADCP,ioos:station:wmo:42369:1,2011-09-03T22:00:00Z,27.2070,-90.2830,60.4,12.5,241.0,99.0,'11111222,11111222,11144222' 
ADCP,ioos:station:wmo:42369:1,2011-09-03T22:20:00Z,27.2070,-90.2830,60.4,12.9,233.0,99.0,'11111222,11111222,11144222' 
ADCP,ioos:station:wmo:42369:1,2011-09-03T22:40:00Z,27.2070,-90.2830,60.4,13.1,228.0,99.0,'11111222,11111222,11144222' 
ADCP,ioos:station:wmo:42369:1,2011-09-03T23:00:00Z,27.2070,-90.2830,60.4,12.9,234.0,99.0,'11111222,11111222,11144222' 
ADCP,ioos:station:wmo:42369:1,2011-09-03T23:20:00Z,27.2070,-90.2830,60.4,12.7,229.0,99.0,'11111222,11111222,11144222' 
ADCP,ioos:station:wmo:42369:1,2011-09-03T23:40:00Z,27.2070,-90.2830,60.4,13.6,230.0,99.0,'11111222,11111222,11144222' 
ADCP,ioos:station:wmo:42369:1,2011-09-04T00:00:00Z,27.2070,-90.2830,60.4,13.2,233.0,99.0,'11111222,11111222,11144222' 
ADCP,ioos:station:wmo:42369:1,2011-09-04T00:20:00Z,27.2070,-90.2830,60.4,12.8,233.0,99.0,'11111222,11111222,11144222' 
ADCP,ioos:station:wmo:42369:1,2011-09-04T01:00:00Z,27.2070,-90.2830,60.4,13.2,239.0,99.0,'11111222,11111222,11144222' 
ADCP,ioos:station:wmo:42369:1,2011-09-04T01:20:00Z,27.2070,-90.2830,60.4,13.9,236.0,99.0,'11111222,11111222,11144222' 
ADCP,ioos:station:wmo:42369:1,2011-09-04T02:00:00Z,27.2070,-90.2830,60.4,12.8,227.0,99.0,'11111222,11111222,11144222' 
ADCP,ioos:station:wmo:42369:1,2011-09-04T02:20:00Z,27.2070,-90.2830,60.4,13.7,229.0,99.0,'11111222,11111222,11144222' 
ADCP,ioos:station:wmo:42369:1,2011-09-04T03:00:00Z,27.2070,-90.2830,60.4,13.6,231.0,99.0,'11111222,11111222,11144222' 
ADCP,ioos:station:wmo:42369:1,2011-09-04T03:20:00Z,27.2070,-90.2830,60.4,13.4,235.0,99.0,'11111222,11111222,11144222' 
ADCP,ioos:station:wmo:42369:1,2011-09-04T04:00:00Z,27.2070,-90.2830,60.4,12.3,217.0,99.0,'11111222,11111222,11144222' 
ADCP,ioos:station:wmo:42369:1,2011-09-04T04:40:00Z,27.2070,-90.2830,60.4,12.7,215.0,99.0,'11111222,11111222,11144222' 
ADCP,ioos:station:wmo:42369:1,2011-09-04T05:00:00Z,27.2070,-90.2830,60.4,12.9,207.0,99.0,'11111222,11111222,11144222' 
ADCP,ioos:station:wmo:42369:1,2011-09-04T05:20:00Z,27.2070,-90.2830,60.4,13.8,208.0,99.0,'11111222,11111222,11144222' 
ADCP,ioos:station:wmo:42369:1,2011-09-04T06:00:00Z,27.2070,-90.2830,60.4,13.8,204.0,99.0,'11111222,11111222,11144222' 
ADCP,ioos:station:wmo:42369:1,2011-09-04T06:20:00Z,27.2070,-90.2830,60.4,14.4,204.0,99.0,'11111222,11111222,11144222' 
ADCP,ioos:station:wmo:42369:1,2011-09-04T06:40:00Z,27.2070,-90.2830,60.4,14.6,204.0,99.0,'11111222,11111222,11144222' 
ADCP,ioos:station:wmo:42369:1,2011-09-04T07:00:00Z,27.2070,-90.2830,60.4,15.6,198.0,99.0,'11111222,11111222,11144222' 
ADCP,ioos:station:wmo:42369:1,2011-09-04T07:20:00Z,27.2070,-90.2830,60.4,15.4,199.0,99.0,'11111222,11111222,11144222' 
ADCP,ioos:station:wmo:42369:1,2011-09-04T07:40:00Z,27.2070,-90.2830,60.4,14.9,203.0,99.0,'11111222,11111222,11144222' 
ADCP,ioos:station:wmo:42369:1,2011-09-04T08:00:00Z,27.2070,-90.2830,60.4,15.7,202.0,99.0,'11111222,11111222,11144222' 
ADCP,ioos:station:wmo:42369:1,2011-09-04T08:20:00Z,27.2070,-90.2830,60.4,15.4,201.0,99.0,'11111222,11111222,11144222' 
ADCP,ioos:station:wmo:42369:1,2011-09-04T08:40:00Z,27.2070,-90.2830,60.4,16.5,199.0,99.0,'11111222,11111222,11144222' 
ADCP,ioos:station:wmo:42369:1,2011-09-04T09:00:00Z,27.2070,-90.2830,60.4,17.0,196.0,99.0,'11111222,11111222,11144222' 
ADCP,ioos:station:wmo:42369:1,2011-09-04T09:20:00Z,27.2070,-90.2830,60.4,16.5,196.0,99.0,'11111222,11111222,11144222' 
ADCP,ioos:station:wmo:42369:1,2011-09-04T09:40:00Z,27.2070,-90.2830,60.4,16.6,194.0,99.0,'11111222,11111222,11144222' 
ADCP,ioos:station:wmo:42369:1,2011-09-04T10:00:00Z,27.2070,-90.2830,60.4,15.9,195.0,99.0,'11111222,11111222,11144222' 
ADCP,ioos:station:wmo:42369:1,2011-09-04T10:20:00Z,27.2070,-90.2830,60.4,17.4,195.0,99.0,'11111222,11111222,11144222' 
ADCP,ioos:station:wmo:42369:1,2011-09-04T11:00:00Z,27.2070,-90.2830,60.4,17.0,199.0,99.0,'11111222,11111222,11144222' 
ADCP,ioos:station:wmo:42369:1,2011-09-04T11:20:00Z,27.2070,-90.2830,60.4,16.8,199.0,99.0,'11111222,11111222,11144222' 
ADCP,ioos:station:wmo:42369:1,2011-09-04T12:20:00Z,27.2070,-90.2830,60.4,16.3,208.0,99.0,'11111222,11111222,11144222' 
ADCP,ioos:station:wmo:42369:1,2011-09-04T13:00:00Z,27.2070,-90.2830,60.4,16.3,208.0,99.0,'11111222,11111222,11144222' 
ADCP,ioos:station:wmo:42369:1,2011-09-04T13:20:00Z,27.2070,-90.2830,60.4,15.6,208.0,99.0,'11111222,11111222,11144222' 